Torna al catalogo

SL-12 R/B(2)

AttivoGEO
NORAD 11568·ROCKET BODY·🇷🇺 Russia

Lanciato Dec 22, 1975 da Baikonur Cosmodrome

Loading…

TLE

AggiornatoSource: Space-Track

Epoca: Sep 14, 2026, 22:09 UTC

1 11568U 75123F   26257.92321409 -.00000256  00000-0  00000-0 0  9995
2 11568   2.3203 261.8099 0013979 225.7112 156.6026  1.00490988122906

Traccia SL-12 R/B(2) in tempo reale con AllMySat

Download on the App Store